Flag for Russia Past Weather in Petropavlovsk-Kamchatsky, Russia — Yesterday and Last 2 Weeks

Now
46 °F

Passing clouds.


Feels Like: 46 °F
Forecast: 47 / 62 °F
Wind: 1 mph from North

Location: Petropavlovsk-Kamchatskij

Current Time: Sep 26, 2016 at 9:04:04 AM

Latest Report: Sep 26, 2016 at 8:30 AM


Visibility: N/A

Pressure: 29.95 "Hg

Humidity: 93%

Dew Point: 45 °F

Location of Petropavlovsk-KamchatskyLocation

Past Weather in Petropavlovsk-Kamchatsky — Graph

°F

Petropavlovsk-Kamchatsky Temperature Yesterday

Maximum temperature yesterday: 66 °F (at 2:30 PM)
Minimum temperature yesterday: 46 °F (at 1:00 AM)
Average temperature yesterday: 58 °F

High & Low Weather Summary for the Past Weeks

 TemperatureHumidityPressure
High66 °F (Sep 25, 2:30 PM)100% (Sep 11, 10:00 PM)30.09 "Hg (Sep 11, 10:00 PM)
Low32 °F (Sep 15, 7:00 AM)29% (Sep 14, 6:00 PM)29.36 "Hg (Sep 18, 8:00 PM)
Average50 °F69%29.79 "Hg
* Reported Sep 11 8:00 AM — Sep 26 8:00 AM, Petropavlovsk-Kamchatsky, Weather by CustomWeather, © 2016

Note: Actual official high and low records may vary slightly from our data, if they occured in-between our weather recording intervals... More about our weather records

Advertising

Petropavlovsk-Kamchatsky Weather History for the Previous 24 Hours

Scroll right to see more
 ConditionsComfort  
Time TempWeatherWind HumidityBarometerVisibility
8:00 AM
Mon, Sep 26
46 °FPassing clouds.1 mph93%29.95 "HgN/A
7:30 AM45 °FPassing clouds.3 mph100%29.95 "HgN/A
7:00 AM43 °FPassing clouds.1 mph93%29.95 "HgN/A
6:00 AM43 °FClear.1 mph93%29.95 "Hg4 mi
3:00 AM46 °FClear.1 mph93%29.98 "Hg6 mi
2:00 AM46 °FClear.3 mph93%30.01 "Hg6 mi
12:00 AM46 °FClear.6 mph93%30.01 "Hg6 mi
10:00 PM
Sun, Sep 25
50 °FClear.3 mph88%30.01 "HgN/A
9:00 PM55 °FClear.6 mph72%30.01 "HgN/A
8:00 PM55 °FClear.8 mph72%29.98 "HgN/A
7:00 PM59 °FClear.6 mph63%29.98 "HgN/A
6:00 PM63 °FClear.13 mph56%29.95 "HgN/A
5:30 PM63 °FClear.17 mph56%29.95 "HgN/A
5:00 PM64 °FClear.10 mph56%29.95 "HgN/A
4:30 PM64 °FPassing clouds.13 mph52%29.95 "HgN/A
4:00 PM66 °FPassing clouds.17 mph52%29.98 "HgN/A
3:30 PM66 °FScattered clouds.17 mph52%29.98 "HgN/A
3:00 PM66 °FScattered clouds.13 mph56%29.95 "HgN/A
2:30 PM66 °FScattered clouds.13 mph56%29.98 "HgN/A
1:00 PM64 °FScattered clouds.3 mph56%29.98 "HgN/A
12:30 PM63 °FScattered clouds.1 mph59%29.98 "HgN/A
12:00 PM63 °FPassing clouds.1 mph59%29.98 "HgN/A
11:30 AM63 °FPassing clouds.3 mph59%29.98 "HgN/A
11:00 AM61 °FPassing clouds.3 mph63%29.98 "HgN/A
10:30 AM61 °FPassing clouds.8 mph59%29.98 "HgN/A
10:00 AM59 °FPassing clouds.6 mph68%29.98 "HgN/A
9:30 AM57 °FPassing clouds.6 mph72%29.98 "HgN/A
9:00 AM55 °FPassing clouds.8 mph72%29.98 "HgN/A
Weather by CustomWeather, © 2016

See weather overviewHow to use our weather pages